Location: Newark
(43.7333°N, 7.4000°E)
Time: 23:43:42
(UTC+00:00)

Envisat - Pass Details

Date: 23 September 2020
Orbit: 764 x 766 km, 98.1° (Epoch: 29 October)

Event Time Altitude Azimuth Distance (km) Brightness Sun altitude
Rises 04:43:04 0° 24° (NNE) 3,239 6.7 -7.3°
Reaches altitude 10° 04:45:44 10° 37° (NE) 2,307 6.2 -6.8°
Maximum altitude 04:50:00 27° 94° (E) 1,452 5.6 -6.1°
Drops below altitude 10° 04:54:14 10° 151° (SSE) 2,292 5.8 -5.3°
Sets 04:56:51 0° 164° (SSE) 3,213 6.4 -4.8°
